User: anonymous   Login
Location: ROBOsky.com Wild Flower Ridge Observatory
(43.9736°N, 79.9739°W)
Time: 18:10:00
(UTC-04:00)
Language:

Cosmos 1190 Rocket - Orbit

View from above orbital plane
View from above orbital plane
View from above satellite
View from above satellite

Ground track
Ground track

The orbit data is extracted from the following two-line orbital elements,

1 11870U 80056B   15187.14211709  .00000134  00000-0  54206-4 0  9992
2 11870 074.0534 075.2001 0016997 207.9835 152.0406 14.36709615832545
Epoch (UTC): 06 July 2015 03:24:38
Eccentricity: 0.0016997
inclination: 74.0534°
perigee height: 757 km
apogee height: 781 km
right ascension of ascending node: 75.2001°
argument of perigee: 207.9835°
revolutions per day: 14.36709615
mean anomaly at epoch: 152.0406°
orbit number at epoch: 83254

The dashed part of the orbit path shows where the satellite is in the earth's shadow,  

DLR